Location: Tr�vern
(48.0333°N, 4.6000°W)
Time: 18:11:30
(UTC+00:00)

Meteor 1-27 Rocket - Pass Details

Date: 14 July 2020
Orbit: 830 x 910 km, 81.3° (Epoch: 12 August)

Event Time Altitude Azimuth Distance (km) Brightness Sun altitude
Rises 00:48:03 0° 345° (NNW) 3,425 8.1 -20.1°
Reaches altitude 10° 00:50:30 10° 341° (NNW) 2,496 7.1 -20.1°
Maximum altitude 00:56:01 57° 265° (W) 1,020 4.0 -20.0°
Enters shadow 00:58:09 36° 206° (SSW) 1,351 4.2 -19.9°
